Tracking 17921 objects as of 18-January-2017
HD Live streaming from Space Station
objects crossing your sky now

INTELSAT 501

Track INTELSAT 501 now!
INTELSAT 501 is classified as:


NORAD ID: 12474
Int'l Code: 1981-050A
Perigee: 36,163.3 km
Apogee: 36,227.9 km
Inclination: 15.1 °
Period: 1,456.7 minutes
Semi major axis: 42566 km
RCS: 3.981 m2 (large)
Launch date: May 23, 1981
Source: International Telecommunications Satellite Organization (ITSO)
Launch site: AIR FORCE EASTERN TEST RANGE (AFETR)
Your satellite tracking list
Your tracking list is empty





NASA's NSSDC Master Catalog

Two Line Element Set (TLE):
1 12474U 81050A   17016.11157630 -.00000183 +00000-0 +00000-0 0  9994
2 12474 015.1377 353.9546 0007582 241.2079 286.7651 00.98855192103675
Source of the keplerian elements: AFSPC